Tracking 25953 objects as of 16-Aug-2022
HD Live streaming from Space Station
objects crossing your sky now

IRS P6

Track IRS P6 now!
10-day predictions
IRS P6 is classified as:


NORAD ID: 28051
Int'l Code: 2003-046A
Perigee: 743.1 km
Apogee: 826.4 km
Inclination: 98.4 °
Period: 100.4 minutes
Semi major axis: 7155 km
RCS: 5.9386 m2 (large)
Launch date: October 17, 2003
Source: India (IND)
Launch site: SRIHARIKOTA (SRI)

Monitor agricultural, land, and water resources.
aabbcc
Your satellite tracking list
Your tracking list is empty




NASA's NSSDC Master Catalog

Two Line Element Set (TLE):
1 28051U 03046A   22228.38287980  .00000072  00000-0  40034-4 0  9994
2 28051  98.4018 297.6936 0058205 198.4064 161.5025 14.34222898979617
Source of the keplerian elements: AFSPC